^^
Saratoga-Weather Station Historical Data
Daily Summary for December 4, 2020 Units:  English    Metric   Both
Daily Weekly Monthly Yearly Custom
  High: Low: Average:
Temperature: 45.1 °F 34.5 °F 41.2 °F
Dew Point: 41.9 °F 33.4 °F 39 °F
Humidity: 97% 86% 92%
Wind Speed: 13mph 0mph 1.7mph
Wind Gust: 21mph - -
Wind- - SE
Pressure: 29.2 in 29 in -
Precipitation: 0.1 in    
Historical Graphs
 
 
Tabular Data for December 4, 2020
Time Temperature Dew Point Pressure Wind Wind Speed Wind Gust Humidity Rainfall Rate (Hourly) solar
00:00 40.3 °F 39 °F 29.1 in East 4.9 mph 13 mph 95% 0.02 in 0 W/m2
00:05 40.3 °F 39 °F 29.1 in ESE 2 mph 8 mph 95% 0.02 in 0 W/m2
00:10 40.3 °F 39 °F 29.1 in ENE 2.9 mph 13 mph 95% 0.02 in 0 W/m2
00:15 40.5 °F 39.2 °F 29.1 in ENE 4 mph 9 mph 95% 0.02 in 0 W/m2
00:20 40.5 °F 39.2 °F 29.1 in Calm   4 mph 95% 0.02 in 0 W/m2
00:25 40.5 °F 39.2 °F 29.1 in ESE 2 mph 6 mph 95% 0.02 in 0 W/m2
00:30 40.6 °F 39.4 °F 29.1 in ESE 2 mph 14 mph 95% 0.02 in 0 W/m2
00:35 40.6 °F 39 °F 29.1 in ENE 0.9 mph 3 mph 94% 0.02 in 0 W/m2
00:40 40.6 °F 39 °F 29.1 in SSE 6 mph 10 mph 94% 0.02 in 0 W/m2
00:45 40.6 °F 39.4 °F 29.1 in East 8.9 mph 9 mph 95% 0.02 in 0 W/m2
00:50 40.8 °F 39.6 °F 29.1 in ESE 4.9 mph 11 mph 95% 0.01 in 0 W/m2
00:55 40.8 °F 39.6 °F 29.1 in ESE 4 mph 5 mph 95% 0.01 in 0 W/m2
01:01 40.8 °F 39.6 °F 29.1 in SSE 4 mph 11 mph 95% 0.01 in 0 W/m2
01:06 40.8 °F 39.6 °F 29.1 in ESE 6.9 mph 9 mph 95% 0.01 in 0 W/m2
01:11 40.8 °F 39.6 °F 29.1 in ESE 4 mph 6 mph 95% 0.02 in 0 W/m2
01:16 40.8 °F 39.6 °F 29.1 in SE 6.9 mph 10 mph 95% 0.01 in 0 W/m2
01:21 41 °F 39.7 °F 29.1 in NE 0.9 mph 6 mph 95% 0.01 in 0 W/m2
01:26 41 °F 39.7 °F 29.1 in ENE 4 mph 10 mph 95% 0.01 in 0 W/m2
01:31 41.2 °F 39.9 °F 29.1 in ENE 2.9 mph 7 mph 95% 0.01 in 0 W/m2
01:36 41.2 °F 39.9 °F 29.1 in East 4 mph 11 mph 95% 0.01 in 0 W/m2
01:41 41.4 °F 40.1 °F 29.1 in ESE 2 mph 6 mph 95% 0.01 in 0 W/m2
01:46 41.5 °F 39.9 °F 29.1 in SE 0.9 mph 11 mph 94% 0.02 in 0 W/m2
01:51 41.7 °F 40.1 °F 29.1 in ENE 4.9 mph 12 mph 94% 0.02 in 0 W/m2
01:56 42.1 °F 40.5 °F 29.1 in ENE 2.9 mph 9 mph 94% 0.02 in 0 W/m2
02:01 42.1 °F 40.5 °F 29.1 in East 4.9 mph 12 mph 94% 0.02 in 0 W/m2
02:06 42.3 °F 40.6 °F 29.1 in ENE 2.9 mph 7 mph 94% 0.02 in 0 W/m2
02:11 42.3 °F 40.6 °F 29.1 in East 2.9 mph 10 mph 94% 0.02 in 0 W/m2
02:16 42.4 °F 40.8 °F 29.1 in ESE 12.1 mph 12 mph 94% 0.02 in 0 W/m2
02:21 42.6 °F 41 °F 29.1 in ESE 13 mph 13 mph 94% 0.02 in 0 W/m2
02:26 43 °F 41.2 °F 29.1 in NE 6 mph 8 mph 93% 0.02 in 0 W/m2
02:31 43 °F 41.2 °F 29.1 in East 6 mph 9 mph 93% 0.02 in 0 W/m2
02:36 43.2 °F 41.4 °F 29.1 in SSE 10.1 mph 11 mph 93% 0.03 in 0 W/m2
02:41 43.3 °F 41.5 °F 29.1 in East 2 mph 8 mph 93% 0.03 in 0 W/m2
02:46 43.3 °F 41.5 °F 29.1 in SE 2 mph 10 mph 93% 0.02 in 0 W/m2
02:51 43.3 °F 41.5 °F 29 in East 2.9 mph 9 mph 93% 0.02 in 0 W/m2
02:56 43.3 °F 41.5 °F 29.1 in ENE 2 mph 14 mph 93% 0.02 in 0 W/m2
03:01 43.5 °F 41.4 °F 29 in ENE 13 mph 15 mph 92% 0.02 in 0 W/m2
03:06 43.7 °F 41.5 °F 29 in East 11 mph 11 mph 92% 0.02 in 0 W/m2
03:11 43.9 °F 41.7 °F 29 in ENE 6.9 mph 11 mph 92% 0.01 in 0 W/m2
03:16 44.1 °F 41.9 °F 29 in East 4.9 mph 9 mph 92% 0.01 in 0 W/m2
03:21 44.1 °F 41.5 °F 29 in ESE 8.9 mph 21 mph 91% 0.02 in 0 W/m2
03:26 44.1 °F 41.5 °F 29 in SE 4.9 mph 11 mph 91% 0.02 in 0 W/m2
03:31 44.1 °F 41.5 °F 29 in WSW 2.9 mph 9 mph 91% 0.02 in 0 W/m2
03:36 44.2 °F 41.7 °F 29 in SSE 2 mph 18 mph 91% 0.01 in 0 W/m2
03:41 44.2 °F 41.7 °F 29 in ENE 8.1 mph 11 mph 91% 0.01 in 0 W/m2
03:46 44.2 °F 41.7 °F 29 in East 6 mph 18 mph 91% 0.01 in 0 W/m2
03:51 44.2 °F 41.5 °F 29 in NW 2 mph 8 mph 90% 0.01 in 0 W/m2
03:56 44.2 °F 41.5 °F 29 in ENE 2.9 mph 8 mph 90% 0.01 in 0 W/m2
04:01 44.4 °F 41.7 °F 29 in NE 2 mph 9 mph 90% 0.01 in 0 W/m2
04:06 44.4 °F 41.7 °F 29 in WNW 4 mph 9 mph 90% 0.01 in 0 W/m2
04:11 44.4 °F 41.7 °F 29 in ENE 4 mph 8 mph 90% 0.01 in 0 W/m2
04:16 44.4 °F 41.4 °F 29 in NE 2.9 mph 5 mph 89% 0.01 in 0 W/m2
04:21 44.4 °F 41.4 °F 29 in North 2.9 mph 7 mph 89% 0 in 0 W/m2
04:26 44.6 °F 41.5 °F 29 in ENE 2 mph 8 mph 89% 0 in 0 W/m2
04:31 44.6 °F 41.5 °F 29 in West 2.9 mph 6 mph 89% 0 in 0 W/m2
04:36 44.8 °F 41.4 °F 29 in NW 0.9 mph 5 mph 88% 0 in 0 W/m2
04:41 44.8 °F 41.4 °F 29 in NE 0.9 mph 5 mph 88% 0 in 0 W/m2
04:46 44.8 °F 41.4 °F 29 in North 2 mph 11 mph 88% 0 in 0 W/m2
04:51 45 °F 41.5 °F 29 in North 4 mph 5 mph 88% 0 in 0 W/m2
04:56 45 °F 41.4 °F 29 in ENE 10.1 mph 11 mph 87% 0 in 0 W/m2
05:01 45 °F 41.4 °F 29 in ESE 6 mph 6 mph 87% 0 in 0 W/m2
05:06 45 °F 41.4 °F 29 in North 12 mph 12 mph 87% 0 in 0 W/m2
05:11 45 °F 41.4 °F 29 in ESE 0.9 mph 11 mph 87% 0 in 0 W/m2
05:16 45.1 °F 41.2 °F 29 in WNW 2.9 mph 5 mph 86% 0 in 0 W/m2
05:21 45.1 °F 41.5 °F 29 in NNE 2 mph 11 mph 87% 0 in 0 W/m2
05:26 45 °F 41.4 °F 29.1 in NW 2 mph 8 mph 87% 0 in 0 W/m2
05:31 45 °F 41.4 °F 29.1 in NW 4 mph 8 mph 87% 0 in 0 W/m2
05:36 45 °F 41.4 °F 29.1 in NW 2 mph 4 mph 87% 0 in 0 W/m2
05:41 44.8 °F 41.2 °F 29.1 in ENE 2 mph 4 mph 87% 0 in 0 W/m2
05:46 44.8 °F 41.4 °F 29.1 in NW 2.9 mph 6 mph 88% 0.01 in 0 W/m2
05:51 44.4 °F 41.4 °F 29.1 in NNE 0.9 mph 4 mph 89% 0.01 in 0 W/m2
05:56 44.4 °F 41.4 °F 29.1 in NNW 2 mph 4 mph 89% 0.01 in 0 W/m2
06:01 44.2 °F 41.5 °F 29.1 in NW 0.9 mph 6 mph 90% 0.01 in 0 W/m2
06:06 44.1 °F 41.4 °F 29.1 in NNW 2.9 mph 4 mph 90% 0.01 in 0 W/m2
06:12 44.1 °F 41.5 °F 29.1 in NNW 0.9 mph 5 mph 91% 0.01 in 0 W/m2
06:17 43.9 °F 41.4 °F 29.1 in Calm   1 mph 91% 0.01 in 0 W/m2
06:22 43.9 °F 41.4 °F 29.1 in Calm   3 mph 91% 0.02 in 0 W/m2
06:27 43.9 °F 41.4 °F 29.1 in North 2 mph 2 mph 91% 0.02 in 0 W/m2
06:32 43.9 °F 41.4 °F 29.1 in North 4 mph 4 mph 91% 0.02 in 0 W/m2
06:37 43.9 °F 41.4 °F 29.1 in WNW 2 mph 5 mph 91% 0.02 in 0 W/m2
06:42 43.9 °F 41.4 °F 29.1 in ENE 2 mph 7 mph 91% 0.02 in 0 W/m2
06:47 43.9 °F 41.4 °F 29.1 in NE 4 mph 5 mph 91% 0.02 in 0 W/m2
06:52 43.9 °F 41.4 °F 29.1 in North 2 mph 4 mph 91% 0.02 in 0 W/m2
06:57 43.9 °F 41.4 °F 29.1 in NE 2 mph 4 mph 91% 0.02 in 0 W/m2
07:02 43.9 °F 41.4 °F 29.1 in Calm   2 mph 91% 0.02 in 0 W/m2
07:07 43.9 °F 41.4 °F 29.1 in Calm   4 mph 91% 0.02 in 0 W/m2
07:12 43.9 °F 41.4 °F 29.1 in ENE 2 mph 5 mph 91% 0.02 in 0 W/m2
07:17 43.9 °F 41.4 °F 29.1 in Calm   4 mph 91% 0.02 in 0 W/m2
07:22 43.9 °F 41.4 °F 29.1 in Calm   5 mph 91% 0.01 in 0 W/m2
07:27 43.9 °F 41.4 °F 29.1 in ENE 4 mph 6 mph 91% 0.01 in 0 W/m2
07:32 43.9 °F 41.4 °F 29.1 in North 0.9 mph 4 mph 91% 0.01 in 0 W/m2
07:37 43.9 °F 41.4 °F 29.1 in East 6 mph 7 mph 91% 0 in 0 W/m2
07:42 43.9 °F 41.2 °F 29.1 in NE 0.9 mph 3 mph 90% 0 in 0 W/m2
07:47 43.9 °F 41.2 °F 29.1 in NNW 0.9 mph 3 mph 90% 0 in 0 W/m2
07:52 43.9 °F 41.2 °F 29.1 in NE 0.9 mph 5 mph 90% 0 in 0 W/m2
07:57 43.5 °F 40.5 °F 29.1 in NNW 2.9 mph 6 mph 89% 0 in 0 W/m2
08:02 43.5 °F 40.5 °F 29.1 in West 2 mph 4 mph 89% 0 in 0 W/m2
08:07 43.5 °F 40.5 °F 29.1 in NNE 0.9 mph 3 mph 89% 0 in 0 W/m2
08:12 43.5 °F 40.5 °F 29.1 in Calm   2 mph 89% 0 in 0 W/m2
08:17 43.5 °F 40.5 °F 29.1 in East 2 mph 4 mph 89% 0 in 0 W/m2
08:22 43.5 °F 40.5 °F 29.1 in ENE 2.9 mph 3 mph 89% 0 in 0 W/m2
08:27 43.7 °F 40.6 °F 29.1 in ENE 2.9 mph 4 mph 89% 0 in 5 W/m2
08:32 43.5 °F 40.5 °F 29.1 in NW 0.9 mph 4 mph 89% 0 in 12 W/m2
08:37 43.7 °F 40.5 °F 29.1 in NNW 2 mph 7 mph 88% 0 in 19 W/m2
08:42 43.7 °F 40.5 °F 29.1 in East 2 mph 4 mph 88% 0 in 16 W/m2
08:47 43.7 °F 40.5 °F 29.1 in ENE 2.9 mph 7 mph 88% 0 in 21 W/m2
08:52 43.9 °F 40.6 °F 29.1 in ENE 4 mph 10 mph 88% 0 in 26 W/m2
08:57 43.9 °F 40.6 °F 29.1 in NE 2 mph 3 mph 88% 0 in 23 W/m2
09:02 43.9 °F 40.6 °F 29.1 in NNE 4 mph 6 mph 88% 0 in 28 W/m2
09:07 43.9 °F 40.6 °F 29.1 in NE 4 mph 6 mph 88% 0 in 25 W/m2
09:12 43.9 °F 40.3 °F 29.1 in ENE 0.9 mph 2 mph 87% 0 in 32 W/m2
09:17 43.9 °F 40.3 °F 29.1 in Calm   4 mph 87% 0 in 30 W/m2
09:22 43.9 °F 40.6 °F 29.1 in ESE 2 mph 7 mph 88% 0 in 25 W/m2
09:27 44.1 °F 40.8 °F 29.1 in East 2.9 mph 8 mph 88% 0 in 14 W/m2
09:32 44.1 °F 40.8 °F 29.1 in East 6 mph 6 mph 88% 0 in 16 W/m2
09:37 44.1 °F 40.8 °F 29.1 in East 2.9 mph 5 mph 88% 0 in 26 W/m2
09:42 43.9 °F 40.6 °F 29.1 in East 2.9 mph 3 mph 88% 0 in 33 W/m2
09:47 43.9 °F 40.6 °F 29.1 in SE 2 mph 7 mph 88% 0 in 49 W/m2
09:52 43.9 °F 40.6 °F 29.1 in ENE 0.9 mph 4 mph 88% 0 in 39 W/m2
09:57 43.9 °F 40.6 °F 29.1 in ESE 4 mph 7 mph 88% 0 in 42 W/m2
10:02 43.9 °F 40.6 °F 29.1 in East 6.9 mph 7 mph 88% 0 in 49 W/m2
10:07 43.9 °F 40.6 °F 29.1 in East 2 mph 4 mph 88% 0 in 32 W/m2
10:12 43.9 °F 40.8 °F 29.1 in East 0.9 mph 5 mph 89% 0 in 35 W/m2
10:17 43.9 °F 40.8 °F 29.1 in NE 2 mph 3 mph 89% 0 in 40 W/m2
10:22 43.9 °F 40.8 °F 29.1 in East 2 mph 3 mph 89% 0 in 42 W/m2
10:27 43.9 °F 40.8 °F 29.1 in ENE 2 mph 4 mph 89% 0 in 54 W/m2
10:32 43.9 °F 40.8 °F 29.1 in East 2 mph 2 mph 89% 0 in 26 W/m2
10:37 43.9 °F 40.8 °F 29.1 in East 0.9 mph 4 mph 89% 0 in 21 W/m2
10:42 43.9 °F 40.8 °F 29.1 in East 2 mph 3 mph 89% 0 in 18 W/m2
10:47 43.9 °F 41.2 °F 29.1 in SE 2 mph 7 mph 90% 0 in 32 W/m2
10:52 43.7 °F 41 °F 29.1 in SE 0.9 mph 2 mph 90% 0 in 44 W/m2
10:57 43.5 °F 40.8 °F 29.1 in ENE 2 mph 6 mph 90% 0 in 16 W/m2
11:02 43.5 °F 40.8 °F 29.1 in ENE 2 mph 4 mph 90% 0 in 32 W/m2
11:07 43.5 °F 41 °F 29.1 in SE 0.9 mph 5 mph 91% 0 in 60 W/m2
11:12 43.5 °F 41 °F 29.1 in SE 0.9 mph 2 mph 91% 0 in 58 W/m2
11:17 43.5 °F 41 °F 29.1 in ENE 4 mph 4 mph 91% 0 in 81 W/m2
11:22 43.5 °F 41 °F 29.1 in ENE 0.9 mph 3 mph 91% 0 in 53 W/m2
11:27 43.5 °F 41 °F 29.1 in ENE 0.9 mph 2 mph 91% 0 in 93 W/m2
11:32 43.7 °F 41.2 °F 29.1 in Calm   1 mph 91% 0 in 67 W/m2
11:37 43.9 °F 41.4 °F 29.1 in Calm   2 mph 91% 0 in 95 W/m2
11:42 43.9 °F 41.4 °F 29.1 in NNE 0.9 mph 1 mph 91% 0 in 107 W/m2
11:47 44.1 °F 41.5 °F 29.1 in East 0.9 mph 4 mph 91% 0 in 93 W/m2
11:52 44.1 °F 41.5 °F 29.1 in Calm   2 mph 91% 0 in 53 W/m2
11:57 44.1 °F 41.5 °F 29.1 in Calm   4 mph 91% 0 in 26 W/m2
12:02 44.1 °F 41.5 °F 29.1 in East 2 mph 2 mph 91% 0 in 28 W/m2
12:07 44.1 °F 41.4 °F 29.1 in East 2 mph 4 mph 90% 0.01 in 23 W/m2
12:12 43.9 °F 41.2 °F 29.1 in ESE 0.9 mph 10 mph 90% 0.02 in 19 W/m2
12:17 43.5 °F 40.8 °F 29.1 in East 2.9 mph 5 mph 90% 0.02 in 16 W/m2
12:22 43.2 °F 40.1 °F 29.1 in SE 0.9 mph 5 mph 89% 0.02 in 19 W/m2
12:27 43 °F 39.9 °F 29.1 in North 2 mph 3 mph 89% 0.02 in 51 W/m2
12:32 42.6 °F 39.6 °F 29.1 in Calm   3 mph 89% 0.02 in 46 W/m2
12:37 42.6 °F 39.9 °F 29.1 in Calm   2 mph 90% 0.02 in 79 W/m2
12:42 42.4 °F 39.7 °F 29.1 in ENE 2.9 mph 5 mph 90% 0.02 in 104 W/m2
12:47 42.4 °F 39.7 °F 29.1 in NE 4 mph 4 mph 90% 0.02 in 105 W/m2
12:52 42.6 °F 40.1 °F 29.1 in Calm   2 mph 91% 0.02 in 97 W/m2
12:57 42.6 °F 40.1 °F 29.1 in Calm   3 mph 91% 0.02 in 86 W/m2
13:02 42.8 °F 40.3 °F 29.1 in NE 0.9 mph 2 mph 91% 0.02 in 79 W/m2
13:07 43 °F 40.5 °F 29.1 in NNW 2 mph 2 mph 91% 0.02 in 91 W/m2
13:12 43 °F 40.3 °F 29.1 in NW 0.9 mph 3 mph 90% 0.01 in 91 W/m2
13:17 43 °F 39.9 °F 29.1 in North 2 mph 3 mph 89% 0.01 in 91 W/m2
13:22 43.2 °F 39.9 °F 29.1 in North 2 mph 3 mph 88% 0.01 in 83 W/m2
13:27 43.2 °F 39.6 °F 29.1 in WSW 4 mph 4 mph 87% 0 in 83 W/m2
13:32 43.2 °F 39.2 °F 29.1 in NNW 0.9 mph 4 mph 86% 0 in 83 W/m2
13:37 43.2 °F 39.2 °F 29.1 in NW 2 mph 3 mph 86% 0 in 83 W/m2
13:42 43.2 °F 39.2 °F 29.1 in Calm   2 mph 86% 0 in 84 W/m2
13:47 43.3 °F 39.4 °F 29.1 in Calm   3 mph 86% 0 in 74 W/m2
13:52 43.3 °F 39.7 °F 29.1 in North 0.9 mph 3 mph 87% 0 in 69 W/m2
13:57 43.3 °F 39.7 °F 29.1 in ENE 4 mph 4 mph 87% 0 in 74 W/m2
14:02 43.2 °F 39.6 °F 29.1 in ENE 2.9 mph 4 mph 87% 0 in 83 W/m2
14:07 43.2 °F 39.2 °F 29.1 in Calm   2 mph 86% 0 in 88 W/m2
14:12 43.2 °F 39.6 °F 29.1 in Calm   2 mph 87% 0 in 74 W/m2
14:17 43.2 °F 39.6 °F 29.1 in Calm   1 mph 87% 0 in 65 W/m2
14:22 43.2 °F 39.2 °F 29.1 in WSW 0.9 mph 4 mph 86% 0 in 69 W/m2
14:27 43.2 °F 39.2 °F 29.1 in Calm   1 mph 86% 0 in 65 W/m2
14:32 43.2 °F 39.2 °F 29.1 in Calm   4 mph 86% 0 in 58 W/m2
14:37 43.2 °F 39.6 °F 29.2 in Calm     87% 0 in 53 W/m2
14:42 43.2 °F 39.2 °F 29.2 in East 4 mph 4 mph 86% 0 in 53 W/m2
14:48 43.2 °F 39.6 °F 29.2 in East 0.9 mph 2 mph 87% 0 in 46 W/m2
14:53 43.2 °F 39.6 °F 29.2 in East 0.9 mph 1 mph 87% 0 in 47 W/m2
14:58 43.2 °F 39.6 °F 29.2 in NE 0.9 mph 4 mph 87% 0 in 42 W/m2
15:03 43 °F 39.4 °F 29.2 in Calm     87% 0 in 40 W/m2
15:08 42.8 °F 39.6 °F 29.2 in Calm   4 mph 88% 0 in 42 W/m2
15:13 42.8 °F 39.6 °F 29.2 in NE 2 mph 2 mph 88% 0 in 33 W/m2
15:18 42.6 °F 39.4 °F 29.2 in NE 2 mph 2 mph 88% 0 in 33 W/m2
15:23 42.6 °F 39.4 °F 29.2 in NE 0.9 mph 1 mph 88% 0 in 28 W/m2
15:28 42.4 °F 39.2 °F 29.2 in Calm   1 mph 88% 0 in 30 W/m2
15:33 42.4 °F 39.2 °F 29.2 in North 0.9 mph 3 mph 88% 0 in 26 W/m2
15:38 42.3 °F 39 °F 29.2 in Calm   1 mph 88% 0 in 25 W/m2
15:43 42.3 °F 39 °F 29.2 in Calm   3 mph 88% 0 in 19 W/m2
15:48 42.3 °F 39 °F 29.2 in North 2 mph 2 mph 88% 0 in 18 W/m2
15:53 42.1 °F 38.8 °F 29.2 in Calm   3 mph 88% 0 in 16 W/m2
15:58 42.1 °F 38.8 °F 29.2 in Calm     88% 0 in 14 W/m2
16:03 41.9 °F 38.7 °F 29.2 in Calm   1 mph 88% 0 in 12 W/m2
16:08 41.7 °F 38.5 °F 29.2 in NE 0.9 mph 2 mph 88% 0 in 9 W/m2
16:13 41.5 °F 38.3 °F 29.2 in Calm     88% 0 in 9 W/m2
16:18 41.5 °F 38.5 °F 29.2 in Calm     89% 0 in 9 W/m2
16:23 41.5 °F 38.8 °F 29.2 in Calm     90% 0 in 5 W/m2
16:28 41.2 °F 38.5 °F 29.2 in Calm     90% 0 in 0 W/m2
16:33 41 °F 38.3 °F 29.2 in Calm     90% 0 in 5 W/m2
16:38 40.8 °F 38.5 °F 29.2 in Calm     91% 0 in 5 W/m2
16:43 40.6 °F 38.3 °F 29.2 in Calm     91% 0 in 0 W/m2
16:48 40.5 °F 38.1 °F 29.2 in Calm     91% 0 in 0 W/m2
16:53 40.3 °F 38.1 °F 29.2 in Calm     92% 0 in 0 W/m2
16:58 39.9 °F 37.8 °F 29.2 in Calm     92% 0 in 0 W/m2
17:03 39.7 °F 37.6 °F 29.2 in Calm     92% 0 in 0 W/m2
17:08 39.6 °F 37.4 °F 29.2 in Calm     92% 0 in 0 W/m2
17:13 39.4 °F 37.2 °F 29.2 in Calm     92% 0 in 0 W/m2
17:18 39.4 °F 37.6 °F 29.2 in Calm     93% 0 in 0 W/m2
17:23 39.2 °F 37.4 °F 29.2 in Calm     93% 0 in 0 W/m2
17:28 39.2 °F 37.4 °F 29.2 in Calm     93% 0 in 0 W/m2
17:33 39 °F 37.4 °F 29.2 in Calm     94% 0 in 0 W/m2
17:38 39 °F 37.4 °F 29.2 in Calm     94% 0 in 0 W/m2
17:43 39 °F 37.4 °F 29.2 in Calm     94% 0 in 0 W/m2
17:48 38.8 °F 37.2 °F 29.2 in Calm     94% 0 in 0 W/m2
17:53 38.8 °F 37.2 °F 29.2 in Calm     94% 0 in 0 W/m2
17:58 38.7 °F 37 °F 29.2 in Calm     94% 0 in 0 W/m2
18:03 38.5 °F 36.9 °F 29.2 in Calm     94% 0 in 0 W/m2
18:08 38.5 °F 36.9 °F 29.2 in Calm     94% 0 in 0 W/m2
18:13 38.5 °F 36.9 °F 29.2 in Calm     94% 0 in 0 W/m2
18:18 38.3 °F 37 °F 29.2 in Calm     95% 0 in 0 W/m2
18:23 38.1 °F 36.5 °F 29.2 in Calm     94% 0 in 0 W/m2
18:28 38.1 °F 36.5 °F 29.2 in Calm     94% 0 in 0 W/m2
18:33 37.9 °F 36.7 °F 29.2 in Calm     95% 0 in 0 W/m2
18:38 37.9 °F 36.7 °F 29.2 in Calm     95% 0 in 0 W/m2
18:43 37.9 °F 36.7 °F 29.2 in Calm     95% 0 in 0 W/m2
18:48 37.9 °F 36.7 °F 29.2 in Calm     95% 0 in 0 W/m2
18:53 37.9 °F 36.7 °F 29.2 in Calm     95% 0 in 0 W/m2
18:58 37.9 °F 36.7 °F 29.2 in Calm     95% 0 in 0 W/m2
19:03 37.8 °F 36.5 °F 29.2 in Calm     95% 0 in 0 W/m2
19:08 37.8 °F 36.5 °F 29.2 in Calm     95% 0 in 0 W/m2
19:13 37.8 °F 36.5 °F 29.2 in Calm     95% 0 in 0 W/m2
19:18 37.8 °F 36.5 °F 29.2 in Calm   1 mph 95% 0 in 0 W/m2
19:23 37.6 °F 36.3 °F 29.2 in Calm     95% 0 in 0 W/m2
19:28 37.6 °F 36.3 °F 29.2 in Calm     95% 0 in 0 W/m2
19:33 37.6 °F 36.3 °F 29.2 in Calm     95% 0 in 0 W/m2
19:38 37.6 °F 36.3 °F 29.2 in Calm     95% 0 in 0 W/m2
19:43 37.4 °F 36.1 °F 29.2 in Calm     95% 0 in 0 W/m2
19:49 37.4 °F 36.1 °F 29.2 in Calm     95% 0 in 0 W/m2
19:54 37.2 °F 36.1 °F 29.2 in Calm     96% 0 in 0 W/m2
19:59 37.2 °F 36.1 °F 29.2 in Calm     96% 0 in 0 W/m2
20:04 37 °F 35.8 °F 29.2 in Calm     95% 0 in 0 W/m2
20:09 37 °F 35.8 °F 29.2 in Calm     95% 0 in 0 W/m2
20:14 36.9 °F 35.6 °F 29.2 in Calm     95% 0 in 0 W/m2
20:19 36.7 °F 35.4 °F 29.2 in Calm     95% 0 in 0 W/m2
20:24 36.3 °F 35.1 °F 29.2 in Calm     95% 0 in 0 W/m2
20:29 36.1 °F 34.9 °F 29.2 in Calm     95% 0 in 0 W/m2
20:34 36.1 °F 34.9 °F 29.2 in Calm     95% 0 in 0 W/m2
20:39 36 °F 34.7 °F 29.2 in Calm     95% 0 in 0 W/m2
20:44 36 °F 34.9 °F 29.2 in Calm     96% 0 in 0 W/m2
20:49 35.8 °F 34.5 °F 29.2 in Calm     95% 0 in 0 W/m2
20:54 35.8 °F 34.7 °F 29.2 in Calm     96% 0 in 0 W/m2
20:59 35.6 °F 34.5 °F 29.2 in Calm     96% 0 in 0 W/m2
21:04 35.4 °F 34.3 °F 29.2 in Calm     96% 0 in 0 W/m2
21:09 35.4 °F 34.3 °F 29.2 in Calm   1 mph 96% 0 in 0 W/m2
21:14 35.4 °F 34.3 °F 29.2 in ENE 0.9 mph 1 mph 96% 0 in 0 W/m2
21:19 35.4 °F 34.3 °F 29.2 in Calm     96% 0 in 0 W/m2
21:24 35.4 °F 34.3 °F 29.2 in Calm     96% 0 in 0 W/m2
21:29 35.4 °F 34.3 °F 29.2 in Calm     96% 0 in 0 W/m2
21:34 35.4 °F 34.3 °F 29.2 in Calm     96% 0 in 0 W/m2
21:39 35.2 °F 34.2 °F 29.2 in Calm     96% 0 in 0 W/m2
21:44 35.2 °F 34.2 °F 29.2 in Calm     96% 0 in 0 W/m2
21:49 35.2 °F 34.2 °F 29.2 in Calm     96% 0 in 0 W/m2
21:54 35.1 °F 34 °F 29.2 in Calm     96% 0 in 0 W/m2
21:59 35.1 °F 34 °F 29.2 in Calm     96% 0 in 0 W/m2
22:04 35.1 °F 34 °F 29.2 in Calm     96% 0 in 0 W/m2
22:09 35.1 °F 34 °F 29.2 in Calm     96% 0 in 0 W/m2
22:14 34.9 °F 33.8 °F 29.2 in Calm     96% 0 in 0 W/m2
22:19 34.9 °F 33.8 °F 29.2 in Calm     96% 0 in 0 W/m2
22:24 34.9 °F 33.8 °F 29.2 in Calm     96% 0 in 0 W/m2
22:29 34.7 °F 33.6 °F 29.2 in Calm     96% 0 in 0 W/m2
22:34 34.7 °F 33.6 °F 29.2 in Calm     96% 0 in 0 W/m2
22:39 34.7 °F 33.6 °F 29.2 in Calm     96% 0 in 0 W/m2
22:44 34.7 °F 33.6 °F 29.2 in Calm     96% 0 in 0 W/m2
22:49 34.5 °F 33.4 °F 29.2 in Calm     96% 0 in 0 W/m2
22:54 34.5 °F 33.4 °F 29.2 in Calm     96% 0 in 0 W/m2
22:59 34.5 °F 33.4 °F 29.2 in Calm     96% 0 in 0 W/m2
23:04 34.7 °F 33.6 °F 29.2 in Calm     96% 0 in 0 W/m2
23:09 34.9 °F 33.8 °F 29.2 in ENE 0.9 mph 2 mph 96% 0 in 0 W/m2
23:14 34.9 °F 33.8 °F 29.2 in Calm   1 mph 96% 0 in 0 W/m2
23:19 34.9 °F 33.8 °F 29.2 in Calm     96% 0 in 0 W/m2
23:24 34.9 °F 33.8 °F 29.2 in Calm     96% 0 in 0 W/m2
23:29 34.7 °F 33.6 °F 29.2 in Calm     96% 0 in 0 W/m2
23:34 34.7 °F 33.6 °F 29.2 in Calm     96% 0 in 0 W/m2
23:39 34.7 °F 33.6 °F 29.2 in East 0.9 mph 3 mph 96% 0 in 0 W/m2
23:44 34.9 °F 34.2 °F 29.2 in Calm     97% 0 in 0 W/m2
23:49 34.9 °F 34.2 °F 29.2 in Calm   3 mph 97% 0 in 0 W/m2
23:54 35.1 °F 34 °F 29.2 in Calm     96% 0 in 0 W/m2
23:59 35.1 °F 34 °F 29.2 in Calm     96% 0 in 0 W/m2
Juneau County Weather
Compliments of Weather Underground - 2 mb